Weather History for KLYV - January, 2013

Change the Weather History Date:

Thursday, January 10, 2013

  Actual Average (KFSD) Record (KFSD)
Temperature  
Mean Temperature 30 °F 16 °F  
Max Temperature 35 °F 26 °F 57 °F (2012)
Min Temperature 26 °F 7 °F -26 °F (1982)
Degree Days  
Heating Degree Days 34 49  
Month to date heating degree days 490  
Since 1 July heating degree days 3623  
Cooling Degree Days 0 0  
Month to date cooling degree days 0  
Year to date cooling degree days 0  
Moisture  
Dew Point 28 °F    
Average Humidity 85    
Maximum Humidity 100    
Minimum Humidity 70    
Precipitation  
Precipitation 0.00 in 0.02 in 0.33 in (1975)
Month to date precipitation 0.19  
Year to date precipitation 0.19  
Snow  
Snow 0.00 in 0.30 in 4.80 in (1975)
Month to date snowfall 2.5  
Since 1 July snowfall 19.4  
Snow Depth -    
Sea Level Pressure  
Sea Level Pressure 29.96 in    
Wind  
Wind Speed 9 mph (SSE)    
Max Wind Speed 16 mph    
Max Gust Speed 22 mph    
Visibility 8 miles    
Events Rain    
T = Trace of Precipitation, MM = Missing Value Source: NWS Daily Summary

Daily Weather History Graph

Daily Weather History Graph

Search for Another Location

Airport or City:

Trip Planner

Search our weather history database for the weather conditions in past years. The results will help you decide how hot, cold, wet, or windy it might be!

Date:

Astronomy

Jan. 10, 2013 Rise Set
Actual Time 7:57 AM CST 5:08 PM CST
Civil Twilight 7:24 AM CST 5:40 PM CST
Nautical Twilight 6:49 AM CST 6:16 PM CST
Astronomical Twilight 6:14 AM CST 6:50 PM CST
Moon 6:37 AM CST (1/10) 4:17 PM CST (1/10)
Length of Visible Light 10h 15m
Length of Day
9h 11m
Waning Crescent, 2% of the Moon is Illuminated
Jan 10
Waning Crescent
Jan 11
New
Jan 18
First Quarter
Jan 26
Full
Feb 3
Last Quarter

Hourly Weather History & Observations

Time (CST) Temp. Windchill Dew Point Humidity Pressure Visibility Wind Dir Wind Speed Gust Speed Precip Events Conditions
12:36 AM 32.0 °F 23.6 °F 26.6 °F 80% 30.23 in 10.0 mi South 10.4 mph - N/A   Clear
12:56 AM 30.2 °F 22.6 °F 26.6 °F 86% 30.23 in 10.0 mi South 8.1 mph - N/A   Clear
1:15 AM 30.2 °F 21.9 °F 26.6 °F 86% 30.23 in 10.0 mi South 9.2 mph - N/A   Clear
1:36 AM 30.2 °F 21.3 °F 26.6 °F 86% 30.21 in 10.0 mi South 10.4 mph - N/A   Clear
1:56 AM 32.0 °F 23.0 °F 26.6 °F 80% 30.21 in 10.0 mi South 11.5 mph - N/A   Clear
2:15 AM 32.0 °F 23.0 °F 26.6 °F 80% 30.22 in 10.0 mi South 11.5 mph - N/A   Clear
2:36 AM 32.0 °F 23.6 °F 26.6 °F 80% 30.21 in 10.0 mi South 10.4 mph - N/A   Clear
2:56 AM 32.0 °F 24.2 °F 26.6 °F 80% 30.21 in 10.0 mi South 9.2 mph - N/A   Clear
3:15 AM 32.0 °F 25.6 °F 26.6 °F 80% 30.21 in 10.0 mi South 6.9 mph - N/A   Clear
3:36 AM 32.0 °F 23.0 °F 26.6 °F 80% 30.20 in 10.0 mi South 11.5 mph - N/A   Clear
4:16 AM 32.0 °F 23.0 °F 28.4 °F 87% 30.19 in 10.0 mi South 11.5 mph - N/A   Clear
4:36 AM 32.0 °F 23.6 °F 26.6 °F 80% 30.19 in 10.0 mi South 10.4 mph - N/A   Clear
4:55 AM 32.0 °F 24.8 °F 26.6 °F 80% 30.18 in 10.0 mi South 8.1 mph - N/A   Clear
5:16 AM 30.2 °F 25.4 °F 26.6 °F 86% 30.18 in 10.0 mi South 4.6 mph - N/A   Clear
5:36 AM 28.4 °F 23.3 °F 23.0 °F 80% 30.17 in 10.0 mi South 4.6 mph - N/A   Clear
5:55 AM 26.6 °F 19.1 °F 23.0 °F 86% 30.17 in 10.0 mi South 6.9 mph - N/A   Clear
6:16 AM 28.4 °F 21.2 °F 24.8 °F 86% 30.16 in 10.0 mi South 6.9 mph - N/A   Clear
6:36 AM 26.6 °F 21.2 °F 21.2 °F 80% 30.15 in 10.0 mi South 4.6 mph - N/A   Clear
6:55 AM 26.6 °F 16.8 °F 23.0 °F 86% 30.14 in 10.0 mi South 10.4 mph - N/A   Clear
7:16 AM 28.4 °F 19.7 °F 23.0 °F 80% 30.14 in 10.0 mi South 9.2 mph - N/A   Clear
7:35 AM 28.4 °F 19.7 °F 23.0 °F 80% 30.14 in 10.0 mi South 9.2 mph - N/A   Clear
7:56 AM 28.4 °F 20.4 °F 23.0 °F 80% 30.14 in 10.0 mi SSE 8.1 mph - N/A   Clear
8:15 AM 28.4 °F 20.4 °F 23.0 °F 80% 30.14 in 10.0 mi SSE 8.1 mph - N/A   Clear
8:36 AM 28.4 °F 22.2 °F 23.0 °F 80% 30.14 in 10.0 mi SSE 5.8 mph - N/A   Clear
8:56 AM 26.6 °F - 21.2 °F 80% 30.13 in 10.0 mi Calm Calm - N/A   Clear
9:15 AM 26.6 °F 21.2 °F 21.2 °F 80% 30.11 in 10.0 mi SSE 4.6 mph - N/A   Clear
9:56 AM 30.2 °F 26.7 °F 23.0 °F 75% 30.10 in 10.0 mi SSE 3.5 mph - N/A   Clear
10:15 AM 30.2 °F 23.4 °F 23.0 °F 75% 30.09 in 10.0 mi SSE 6.9 mph - N/A   Clear
10:35 AM 32.0 °F 23.6 °F 24.8 °F 75% 30.07 in 10.0 mi SSE 10.4 mph - N/A   Clear
10:56 AM 32.0 °F 24.2 °F 24.8 °F 75% 30.06 in 10.0 mi SSE 9.2 mph - N/A   Clear
11:15 AM 33.8 °F 25.3 °F 24.8 °F 70% 30.03 in 10.0 mi SE 11.5 mph - N/A   Clear
11:35 AM 32.0 °F 24.8 °F 26.6 °F 80% 30.02 in 10.0 mi SE 8.1 mph - N/A   Clear
11:56 AM 33.8 °F 25.8 °F 24.8 °F 70% 30.00 in 10.0 mi SE 10.4 mph - N/A   Clear
12:15 PM 33.8 °F 25.8 °F 26.6 °F 75% 29.99 in 10.0 mi SE 10.4 mph - N/A   Scattered Clouds
12:36 PM 33.8 °F 27.0 °F 26.6 °F 75% 29.96 in 10.0 mi SE 8.1 mph - N/A   Scattered Clouds
12:56 PM 33.8 °F 27.0 °F 26.6 °F 75% 29.93 in 10.0 mi SE 8.1 mph - N/A   Overcast
1:36 PM 35.6 °F 28.6 °F 28.4 °F 75% 29.92 in 10.0 mi SSE 9.2 mph - N/A   Drizzle
1:56 PM 33.8 °F 25.8 °F 30.2 °F 87% 29.92 in 2.5 mi SSE 10.4 mph - N/A Rain Light Rain
2:15 PM 33.8 °F 27.7 °F 30.2 °F 87% 29.90 in 5.0 mi SSE 6.9 mph - N/A Rain Light Rain
2:36 PM 33.8 °F 28.6 °F 30.2 °F 87% 29.90 in 10.0 mi SSE 5.8 mph - N/A   Drizzle
2:56 PM 33.8 °F 28.6 °F 30.2 °F 87% 29.89 in 10.0 mi SSE 5.8 mph - N/A Rain Rain
3:15 PM 33.8 °F 27.0 °F 30.2 °F 87% 29.87 in 10.0 mi SE 8.1 mph - N/A Rain Light Rain
3:36 PM 33.8 °F 25.3 °F 30.2 °F 87% 29.86 in 10.0 mi SE 11.5 mph - N/A   Light Drizzle
3:56 PM 33.8 °F 25.8 °F 30.2 °F 87% 29.84 in 10.0 mi SE 10.4 mph - N/A   Drizzle
4:15 PM 33.8 °F 24.8 °F 30.2 °F 87% 29.83 in 10.0 mi SSE 12.7 mph - N/A   Light Drizzle
4:36 PM 33.8 °F 24.8 °F 30.2 °F 87% 29.80 in 10.0 mi SE 12.7 mph - N/A   Light Drizzle
4:56 PM 33.8 °F 24.3 °F 32.0 °F 93% 29.80 in 4.0 mi SE 13.8 mph - N/A Rain Rain
5:15 PM 33.8 °F 23.5 °F 32.0 °F 93% 29.78 in 10.0 mi SE 16.1 mph 21.9 mph N/A Rain Light Rain
5:36 PM 33.8 °F 23.9 °F 32.0 °F 93% 29.76 in 10.0 mi SE 15.0 mph - N/A   Overcast
5:56 PM 33.8 °F 24.3 °F 32.0 °F 93% 29.77 in 10.0 mi SSE 13.8 mph 20.7 mph N/A   Overcast
6:15 PM 33.8 °F 25.8 °F 32.0 °F 93% 29.77 in 10.0 mi SSE 10.4 mph 17.3 mph N/A   Overcast
6:36 PM 33.8 °F 24.8 °F 32.0 °F 93% 29.76 in 10.0 mi SSE 12.7 mph - N/A   Overcast
6:55 PM 33.8 °F 25.8 °F 32.0 °F 93% 29.75 in 10.0 mi SSE 10.4 mph - N/A   Overcast
7:16 PM 33.8 °F 25.8 °F 32.0 °F 93% 29.74 in 7.0 mi South 10.4 mph - N/A   Overcast
7:36 PM 33.8 °F 24.8 °F 32.0 °F 93% 29.73 in 5.0 mi SSE 12.7 mph - N/A   Overcast
7:55 PM 32.0 °F 23.0 °F 32.0 °F 100% 29.72 in 4.0 mi SSE 11.5 mph 16.1 mph N/A   Overcast
8:16 PM 32.0 °F 23.0 °F 32.0 °F 100% 29.72 in 1.8 mi SSE 11.5 mph - N/A   Overcast
8:55 PM 33.8 °F 23.9 °F 32.0 °F 93% 29.71 in 1.2 mi South 15.0 mph - N/A   Overcast
9:16 PM 33.8 °F 24.8 °F 32.0 °F 93% 29.69 in 1.2 mi South 12.7 mph - N/A   Overcast
9:36 PM 33.8 °F 25.8 °F 32.0 °F 93% 29.68 in 1.5 mi South 10.4 mph - N/A   Overcast
9:55 PM 33.8 °F 24.8 °F 32.0 °F 93% 29.67 in 1.2 mi South 12.7 mph - N/A   Overcast
10:16 PM 33.8 °F 24.3 °F 32.0 °F 93% 29.67 in 1.2 mi South 13.8 mph - N/A   Overcast
10:36 PM 33.8 °F 25.8 °F 32.0 °F 93% 29.65 in 1.2 mi South 10.4 mph - N/A   Overcast
10:55 PM 33.8 °F 25.8 °F 32.0 °F 93% 29.64 in 1.0 mi South 10.4 mph - N/A   Overcast
11:16 PM 33.8 °F 26.4 °F 32.0 °F 93% 29.63 in 1.2 mi South 9.2 mph - N/A   Overcast
11:35 PM 33.8 °F 25.8 °F 32.0 °F 93% 29.62 in 1.0 mi SSE 10.4 mph - N/A   Overcast
11:56 PM 33.8 °F 25.8 °F 32.0 °F 93% 29.61 in 1.2 mi SSE 10.4 mph - N/A   Overcast